Dutch Harbor, AK

7:58 AM AKST on December 12, 2017 (GMT -0900)
Unalaska

Weather History for PADU - January, 2013

Change the Weather History Date:

Monday, January 14, 2013

  Actual Average Record
Temperature  
Mean Temperature 34 °F -  
Max Temperature 37 °F 36 °F 52 °F (1952)
Min Temperature 32 °F 25 °F 10 °F (1983)
Degree Days  
Heating Degree Days 30    
Moisture  
Dew Point 31 °F    
Average Humidity 90    
Maximum Humidity 93    
Minimum Humidity 86    
Precipitation  
Precipitation 0.01 in - - ()
Sea Level Pressure  
Sea Level Pressure 29.74 in    
Wind  
Wind Speed 3 mph (NNW)    
Max Wind Speed 12 mph    
Max Gust Speed -    
Visibility 9 miles    
Events Rain , Snow    
Averages and records for this station are not official NWS values.
T = Trace of Precipitation, MM = Missing Value Source: NWS Daily Summary

Daily Weather History Graph

Daily Weather History Graph

Search for Another Location

Airport or City:

Trip Planner

Search our weather history database for the weather conditions in past years. The results will help you decide how hot, cold, wet, or windy it might be!

Date:

Astronomy

Jan. 14, 2013 Rise Set
Actual Time 10:16 AM AKST 6:14 PM AKST
Civil Twilight 9:35 AM AKST 6:56 PM AKST
Nautical Twilight 8:50 AM AKST 7:40 PM AKST
Astronomical Twilight 8:08 AM AKST 8:23 PM AKST
Moon 11:18 AM AKST (1/14) 10:58 PM AKST (1/14)
Length of Visible Light 9h 21m
Length of Day
7h 58m
Waxing Crescent, 12% of the Moon is Illuminated
Jan 14
Waxing Crescent
Jan 18
First Quarter
Jan 26
Full
Feb 3
Last Quarter
Feb 9
New

Hourly Weather History & Observations

Time (AKST) Temp. Windchill Dew Point Humidity Pressure Visibility Wind Dir Wind Speed Gust Speed Precip Events Conditions
12:12 AM 33.8 °F 25.3 °F 30.2 °F 87% 29.46 in 6.0 mi North 11.5 mph - 0.00 in Snow Light Snow
12:48 AM 33.8 °F 29.6 °F 30.2 °F 87% 29.49 in 3.0 mi NNW 4.6 mph - 0.00 in Snow Light Snow
12:56 AM 33.1 °F 30.0 °F 30.9 °F 92% 29.52 in 4.0 mi WNW 3.5 mph - 0.00 in Snow Light Snow
1:11 AM 33.8 °F - 30.2 °F 87% 29.51 in 7.0 mi Calm Calm - 0.00 in Snow Light Snow
1:22 AM 33.8 °F - 30.2 °F 87% 29.52 in 4.0 mi Calm Calm - 0.00 in   Overcast
1:41 AM 33.8 °F - 30.2 °F 87% 29.53 in 2.5 mi Calm Calm - 0.00 in   Overcast
1:56 AM 33.1 °F - 30.9 °F 92% 29.57 in 2.5 mi Calm Calm - 0.00 in   Overcast
2:00 AM 33.8 °F - 30.2 °F 87% 29.55 in 3.0 mi Calm Calm - 0.00 in   Overcast
2:07 AM 33.8 °F - 30.2 °F 87% 29.56 in 5.0 mi Calm Calm - 0.00 in   Overcast
2:12 AM 33.8 °F - 30.2 °F 87% 29.56 in 7.0 mi Calm Calm - 0.00 in Rain Light Rain
2:56 AM 33.1 °F - 30.9 °F 92% 29.60 in 10.0 mi Calm Calm - 0.00 in   Overcast
3:14 AM 33.8 °F - 30.2 °F 87% 29.59 in 10.0 mi Calm Calm - N/A   Overcast
3:37 AM 33.8 °F - 30.2 °F 87% 29.61 in 10.0 mi Calm Calm - N/A   Overcast
3:56 AM 33.1 °F 26.1 °F 30.9 °F 92% 29.64 in 10.0 mi North 8.1 mph - N/A   Overcast
4:13 AM 33.8 °F 29.6 °F 30.2 °F 87% 29.63 in 10.0 mi North 4.6 mph - 0.00 in   Overcast
4:27 AM 33.8 °F 30.8 °F 30.2 °F 87% 29.64 in 10.0 mi NNE 3.5 mph - 0.00 in   Overcast
4:56 AM 33.1 °F - 30.9 °F 92% 29.67 in 10.0 mi Calm Calm - 0.00 in Rain Light Rain
5:56 AM 33.1 °F - 30.9 °F 92% 29.68 in 10.0 mi Calm Calm - 0.00 in   Overcast
6:35 AM 32.0 °F 28.7 °F 30.2 °F 93% 29.68 in 10.0 mi ENE 3.5 mph - N/A   Scattered Clouds
6:56 AM 32.0 °F - 30.0 °F 92% 29.70 in 10.0 mi Calm Calm - N/A   Scattered Clouds
7:56 AM 32.0 °F - 30.0 °F 92% 29.73 in 10.0 mi Calm Calm - N/A   Overcast
8:56 AM 32.0 °F - 30.0 °F 92% 29.76 in 10.0 mi Calm Calm - N/A   Partly Cloudy
9:56 AM 33.1 °F 27.7 °F 30.9 °F 92% 29.80 in 10.0 mi South 5.8 mph - N/A   Scattered Clouds
10:56 AM 33.1 °F - 30.0 °F 89% 29.82 in 10.0 mi Calm Calm - N/A   Scattered Clouds
11:56 AM 33.1 °F - 30.9 °F 92% 29.83 in 10.0 mi Calm Calm - N/A   Scattered Clouds
12:50 PM 35.6 °F - 32.0 °F 87% 29.83 in 10.0 mi Calm Calm - 0.00 in   Mostly Cloudy
12:56 PM 35.1 °F 31.0 °F 32.0 °F 89% 29.85 in 10.0 mi West 4.6 mph - 0.00 in   Mostly Cloudy
1:56 PM 37.0 °F - 33.1 °F 86% 29.85 in 10.0 mi Calm Calm - N/A   Scattered Clouds
2:39 PM 35.6 °F - 32.0 °F 87% 29.83 in 10.0 mi Calm Calm - 0.00 in Rain Light Rain
2:56 PM 36.0 °F - 33.1 °F 89% 29.85 in 10.0 mi Calm Calm - 0.00 in Rain Light Rain
3:08 PM 35.6 °F 32.8 °F 33.8 °F 93% 29.84 in 10.0 mi East 3.5 mph - 0.00 in   Mostly Cloudy
3:56 PM 35.1 °F - 32.0 °F 89% 29.88 in 8.0 mi Calm Calm - 0.00 in Snow Light Snow
4:47 PM 33.8 °F - 32.0 °F 93% 29.86 in 10.0 mi Calm Calm - 0.00 in   Mostly Cloudy
4:56 PM 34.0 °F - 32.0 °F 92% 29.88 in 10.0 mi Calm Calm - 0.00 in   Mostly Cloudy
5:56 PM 33.1 °F - 30.9 °F 92% 29.89 in 10.0 mi Calm Calm - N/A   Mostly Cloudy
6:56 PM 33.1 °F - 30.9 °F 92% 29.91 in 10.0 mi Calm Calm - N/A   Mostly Cloudy
7:56 PM 33.1 °F 30.0 °F 30.9 °F 92% 29.93 in 10.0 mi NNW 3.5 mph - N/A   Overcast
8:56 PM 33.1 °F - 30.9 °F 92% 29.94 in 10.0 mi Calm Calm - N/A   Mostly Cloudy
9:56 PM 33.1 °F 30.0 °F 30.9 °F 92% 29.96 in 10.0 mi NW 3.5 mph - N/A   Mostly Cloudy
10:35 PM 33.8 °F 30.8 °F 32.0 °F 93% 29.94 in 9.0 mi North 3.5 mph - 0.01 in Rain Light Rain
10:49 PM 33.8 °F - 32.0 °F 93% 29.95 in 10.0 mi Calm Calm - 0.01 in   Overcast
10:56 PM 34.0 °F - 32.0 °F 92% 29.97 in 10.0 mi Calm Calm - 0.01 in   Overcast
11:17 PM 33.8 °F - 32.0 °F 93% 29.95 in 10.0 mi Calm Calm - 0.00 in   Overcast
11:56 PM 34.0 °F - 32.0 °F 92% 29.97 in 10.0 mi Calm Calm - 0.00 in   Overcast